This is the latest recevied weather packets stored in our database for station/object KE5VT. If no packets are shown the sender has not sent any weather packets the latest 10 day(s).
| Time | Temp. | Humidity | Pressure | Rain* | Wind** | Luminosity | Snow |
|---|---|---|---|---|---|---|---|
| 1777610614 | 16.67° C | 49% | 1009.4 hPa | 0 mm | - | 0 W/m² | - |
| 1777610313 | 16.67° C | 52% | 1009.4 hPa | 0 mm | - | 0 W/m² | - |
| 1777610010 | 16.67° C | 49% | 1009.1 hPa | 0 mm | - | 0 W/m² | - |
| 1777609706 | 16.67° C | 53% | 1009.4 hPa | 0 mm | - | 0 W/m² | - |
| 1777609404 | 16.11° C | 53% | 1009.4 hPa | 0 mm | - | 0 W/m² | - |
| 1777609101 | 16.11° C | 55% | 1009.1 hPa | 0 mm | - | 0 W/m² | - |
| 1777608798 | 16.11° C | 57% | 1009.3 hPa | 0 mm | - | 0 W/m² | - |
| 1777608495 | 16.67° C | 58% | 1009 hPa | 0 mm | - | 0 W/m² | - |
| 1777608193 | 16.67° C | 58% | 1009 hPa | 0 mm | - | 0 W/m² | - |
| 1777607889 | 16.67° C | 59% | 1009.1 hPa | 0 mm | - | 0 W/m² | - |
| 1777607585 | 16.67° C | 59% | 1009 hPa | 0 mm | - | 0 W/m² | - |
| 1777607282 | 16.67° C | 63% | 1009 hPa | 0 mm | - | 0 W/m² | - |
| 1777606978 | 16.67° C | 64% | 1008.8 hPa | 0 mm | - | 0 W/m² | - |
| 1777606674 | 16.67° C | 68% | 1008.9 hPa | 0 mm | - | 0 W/m² | - |
| 1777606370 | 16.67° C | 68% | 1008.9 hPa | 0 mm | - | 0 W/m² | - |
| 1777606070 | 16.67° C | 69% | 1008.9 hPa | 0 mm | - | 0 W/m² | - |
| 1777605766 | 16.11° C | 74% | 1008.8 hPa | 0 mm | - | 0 W/m² | - |
| 1777605464 | 16.67° C | 78% | 1008.7 hPa | 0 mm | - | 0 W/m² | - |
| 1777605163 | 16.67° C | 75% | 1008.8 hPa | 0 mm | - | 0 W/m² | - |
| 1777604857 | 16.67° C | 76% | 1008.9 hPa | 0 mm | - | 0 W/m² | - |
| 1777604554 | 16.67° C | 76% | 1008.7 hPa | 0 mm | - | 0 W/m² | - |
| 1777604249 | 16.67° C | 77% | 1008.6 hPa | 0 mm | - | 0 W/m² | - |
| 1777603945 | 16.67° C | 76% | 1008.6 hPa | 0 mm | - | 0 W/m² | - |
| 1777603643 | 16.67° C | 77% | 1008.6 hPa | 0 mm | - | 0 W/m² | - |
| 1777603339 | 15° C | 81% | 1008.6 hPa | 0 mm | - | 0 W/m² | - |
* Rain latest hour (hover to see other rain measurements)
** Current wind speed in m/s (hover to see current wind gust speed)